Orbital Elements at Epoch 2459200.5 (2020-Dec-17.0) TDB
Reference: JPL 35 (heliocentric ecliptic J2000)
Element | Value | Uncertainty (1-sigma) | Units |
e | .3267593737007716 | 4.1447e-08 | |
a | 2.327337128838379 | 9.8015e-09 | au |
q | 1.566857906228598 | 9.6999e-08 | au |
i | 21.31313674282875 | 4.8112e-06 | deg |
node | 10.8293590213976 | 1.3421e-05 | deg |
peri | 255.6925566218518 | 1.582e-05 | deg |
M | 247.4222483944901 | 1.3673e-05 | deg |
tp | 2459606.043498948431 (2022-Jan-26.54349895) | 5.0777e-05 | TDB |
period | 1296.842915579152 3.55 | 8.1924e-06 2.243e-08 | d yr |
n | .2775972291441551 | 1.7536e-09 | deg/d |
Q | 3.08781635144816 | 1.3004e-08 | au |
|
| | Orbit Determination Parameters
Additional Information
|